Home   Weather   Pirna   Past weeks

Flag for Germany Past Weather in Pirna, Saxony, Germany — Yesterday and Last 2 Weeks

Now
48 °F

Passing clouds.


Feels Like: 44 °F
Forecast: 40 / 44 °F
Wind: 10 mph from West

Location: Dresden-Klotzsche

Current Time: Dec 10, 2016 at 8:06:42 am

Latest Report: Dec 10, 2016 at 7:20 am


Visibility: N/A

Pressure: 30.18 "Hg

Humidity: 82%

Dew Point: 43 °F

Location of PirnaLocation

Past Weather in Pirna — Graph

°F

Pirna Temperature Yesterday

Maximum temperature yesterday: 48 °F (at 11:20 pm)
Minimum temperature yesterday: 43 °F (at 12:20 am)
Average temperature yesterday: 45 °F

High & Low Weather Summary for the Past Weeks

 TemperatureHumidityPressure
High54 °F (Dec 8, 1:20 pm)100% (Nov 25, 6:20 pm)30.54 "Hg (Nov 25, 6:20 pm)
Low19 °F (Dec 6, 4:50 am)28% (Dec 8, 3:20 pm)29.80 "Hg (Dec 2, 12:50 am)
Average34 °F85%30.26 "Hg
* Reported Nov 25 6:20 am — Dec 10 6:50 am, Pirna, Weather by CustomWeather, © 2016

Note: Actual official high and low records may vary slightly from our data, if they occured in-between our weather recording intervals... More about our weather records

Advertising

Pirna Weather History for the Previous 24 Hours

Scroll right to see more
 ConditionsComfort  
Time TempWeatherWind HumidityBarometerVisibility
6:50 am
Sat, Dec 10
48 °FPassing clouds.12 mph82%30.18 "HgN/A
6:20 am48 °FPassing clouds.9 mph82%30.18 "HgN/A
5:50 am48 °FPassing clouds.9 mph82%30.18 "HgN/A
5:20 am48 °FPassing clouds.8 mph82%30.21 "HgN/A
4:50 am48 °FPassing clouds.10 mph82%30.18 "HgN/A
4:20 am48 °FPassing clouds.10 mph82%30.21 "HgN/A
3:50 am48 °FPassing clouds.10 mph82%30.21 "HgN/A
3:20 am48 °FPassing clouds.8 mph82%30.21 "HgN/A
2:50 am48 °FPassing clouds.10 mph87%30.21 "HgN/A
2:20 am48 °FPartly cloudy.8 mph87%30.24 "HgN/A
1:50 am48 °FPassing clouds.9 mph87%30.24 "HgN/A
1:20 am48 °FPartly cloudy.12 mph87%30.24 "HgN/A
12:50 am48 °FPassing clouds.8 mph87%30.24 "HgN/A
12:20 am46 °FPassing clouds.9 mph93%30.24 "HgN/A
11:50 pm
Fri, Dec 9
48 °FPassing clouds.12 mph87%30.27 "HgN/A
11:20 pm48 °FPassing clouds.8 mph82%30.27 "HgN/A
10:50 pm46 °FPassing clouds.9 mph87%30.27 "HgN/A
10:20 pm46 °FPassing clouds.7 mph87%30.27 "HgN/A
9:50 pm45 °FPassing clouds.7 mph87%30.30 "HgN/A
9:20 pm45 °FPartly cloudy.6 mph93%30.30 "HgN/A
8:50 pm45 °FPartly cloudy.6 mph87%30.30 "HgN/A
8:20 pm45 °FPartly cloudy.6 mph87%30.30 "HgN/A
7:50 pm45 °FPassing clouds.8 mph87%30.30 "HgN/A
7:20 pm46 °FPassing clouds.9 mph82%30.33 "HgN/A
6:50 pm45 °FPassing clouds.7 mph87%30.30 "HgN/A
6:20 pm45 °FPassing clouds.7 mph93%30.33 "HgN/A
5:50 pm45 °FPassing clouds.8 mph93%30.33 "HgN/A
5:20 pm45 °FPartly cloudy.6 mph93%30.33 "HgN/A
4:50 pm45 °FPassing clouds.8 mph93%30.33 "Hg4 mi
4:20 pm45 °FPassing clouds.9 mph93%30.30 "Hg5 mi
3:50 pm45 °FPartly sunny.9 mph93%30.30 "Hg5 mi
3:20 pm45 °FBroken clouds.9 mph93%30.30 "Hg4 mi
2:50 pm45 °FLight rain. Fog.9 mph93%30.30 "Hg3 mi
2:20 pm45 °FDrizzle. Fog.10 mph93%30.30 "Hg3 mi
1:50 pm45 °FLight rain. Broken clouds.13 mph93%30.30 "Hg4 mi
1:20 pm45 °FDrizzle. Partly sunny.12 mph93%30.30 "Hg3 mi
12:50 pm45 °FDrizzle. Partly sunny.13 mph93%30.30 "Hg4 mi
12:20 pm45 °FDrizzle. Partly sunny.13 mph93%30.30 "Hg4 mi
11:50 am45 °FDrizzle. Fog.13 mph93%30.30 "Hg3 mi
11:20 am45 °FDrizzle. Fog.12 mph93%30.30 "Hg2 mi
10:50 am45 °FDrizzle. Partly sunny.14 mph87%30.30 "Hg4 mi
10:20 am45 °FDrizzle. Broken clouds.10 mph87%30.30 "Hg4 mi
9:50 am43 °FDrizzle. Partly sunny.12 mph93%30.30 "Hg4 mi
9:20 am43 °FDrizzle. Partly sunny.12 mph93%30.27 "Hg4 mi
8:50 am43 °FDrizzle. Partly sunny.13 mph93%30.27 "Hg4 mi
8:20 am45 °FPartly sunny.13 mph81%30.27 "HgN/A
Weather by CustomWeather, © 2016

See weather overviewHow to use our weather pages